Regional Weather Roundup
Issued by NWS

Home | Current Version | Previous Version | Graphics & Text | Print | Product List | Glossary Off
Versions: 1 2 3 4 5 6 7 8 9 10 11 12 13 14 15 16 17 18 19 20 21 22 23 24 25 26 27 28 29 30 31 32 33 34 35 36 37 38 39 40 41 42 43 44 45 46 47 48 49 50

358
ASUS45 KABQ 302210
RWRNM
NEW MEXICO REGIONAL WEATHER ROUNDUP
NATIONAL WEATHER SERVICE ALBUQUERQUE NM
400 PM MDT SAT APR 30 2016

NOTE: "FAIR" MEANS FEW OR NO CLOUDS BELOW 12,000 FEET AGL WITH NO
       SIGNIFICANT WEATHER OR OBSTRUCTIONS TO VISION.

      THIS PRODUCT IS RELEASED AS TWO VERSIONS.  ONE VERSION NEAR
      THE TOP OF THE HOUR CONTAINING PRELIMINARY DATA FROM ALBUQUERQUE
      AND OTHER STATIONS.  A FINAL VERSION WITH ADDITIONAL DATA IS
      ISSUED ABOUT 10 MINUTES AFTER THE HOUR.

NMZ501-503-504-510>518-302300-
NORTHWEST PLATEAU/NORTHCENTRAL MOUNTAINS

CITY           SKY/WX    TMP DP  RH WIND       PRES   REMARKS
FARMINGTON     PTSUNNY   61  26  26 W17G24    29.80F
LOS ALAMOS     FAIR      53  30  41 N6        29.88F
SANTA FE       FAIR      57  29  34 CALM      29.83F
TAOS           PTSUNNY   52  28  40 S9        29.86S
ANGEL FIRE     CLOUDY    42  32  65 W16       29.91S

$$
NMZ402-403-502-505>509-302300-
WESTCENTRAL MOUNTAINS/SOUTHWEST MOUNTAINS

CITY           SKY/WX    TMP DP  RH WIND       PRES   REMARKS
GALLUP         PTSUNNY   46  36  68 E14       29.88R
GRANTS         FAIR      52  39  61 N14G22    29.87F THUNDER
SILVER CITY      N/A     66  21  18 SW13G21   29.81S

$$
NMZ407-409-411-412-302300-
SOUTHERN DESERTS

CITY           SKY/WX    TMP DP  RH WIND       PRES   REMARKS
LORDSBURG      CLOUDY    72  27  18 NE6G17    29.72F
DEMING         FAIR      75  16  10 VRB6G20   29.73F
LAS CRUCES     FAIR      74  20  13 SW10      29.78F
HOLLOMAN AFB   FAIR      75  23  14 SW12      29.74F
ALAMOGORDO     FAIR      75  25  15 S13G18    29.76F
T OR C         PTSUNNY   70  22  16 S20G25    29.73F

$$
NMZ519>523-302300-
CENTRAL VALLEYS/CENTRAL HIGHLANDS

CITY           SKY/WX    TMP DP  RH WIND       PRES   REMARKS
ALBUQUERQUE    PTSUNNY   63  32  31 MISG      29.82F
DOUBLE EAGLE   PTSUNNY   59  36  41 VRB6      29.84F
MORIARTY ARPT  PTSUNNY   60  24  25 SW5       29.84F
CLINES CORNERS CLOUDY    56  25  30 NW13G18   29.85S
BELEN          PTSUNNY   66  27  23 N8        29.79F
SOCORRO        CLOUDY    65  27  23 SE9       29.78S

$$
NMZ524>526-539-540-302300-
SOUTHCENTRAL MOUNTAINS

CITY           SKY/WX    TMP DP  RH WIND       PRES   REMARKS
RUIDOSO          N/A     59  19  21 S5G17     29.88F

$$
NMZ527>531-302300-
NORTHEAST HIGHLANDS/NORTHEAST PLAINS

CITY           SKY/WX    TMP DP  RH WIND       PRES   REMARKS
LAS VEGAS      PTSUNNY   49  36  61 E13       29.87R
RATON          CLOUDY    47  32  56 NE13      29.90R
CLAYTON        CLOUDY    50  32  50 N13       29.91R

$$
NMZ532>537-302300-
EASTCENTRAL PLAINS

CITY           SKY/WX    TMP DP  RH WIND       PRES   REMARKS
TUCUMCARI      PTSUNNY   63  37  38 E8        29.83F
CANNON AFB     NOT AVBL
CLOVIS AIRPORT PTSUNNY   63  39  42 E10       29.84S

$$
NMZ028-029-538-302300-
SOUTHEAST PLAINS

CITY           SKY/WX    TMP DP  RH WIND       PRES   REMARKS
ROSWELL        FAIR      75  26  16 CALM      29.73F
ARTESIA        FAIR      79  27  14 NE13      29.71F
CARLSBAD       FAIR      80  24  12 W7        29.71F
HOBBS          MOSUNNY   75  25  15 SW9G18    29.79F


$$




USA.gov is the U.S. government's official web portal to all federal, state and local government web resources and services.